| time (UTC) | temp F | wind direction | speed MPH | gust MPH | rain 1hr in | rain 24hr in | rain mn in | humidity % | barometer mb |
| 20260903152017 | 80 | 113 | 1.0 | 6.0 | 0.00 | 0.00 | 0.00 | 68 | 1016.9 |
| 20260903151017 | 79 | 113 | 1.0 | 3.0 | 0.00 | 0.00 | 0.00 | 68 | 1016.8 |
| 20260903150017 | 79 | 0.0 | 0.0 | 0.00 | 0.00 | 0.00 | 68 | 1016.8 | |
| 20260903145017 | 78 | 0.0 | 0.0 | 0.00 | 0.00 | 0.00 | 70 | 1016.8 | |
| 20260903144017 | 78 | 0.0 | 0.0 | 0.00 | 0.00 | 0.00 | 69 | 1016.7 | |
| 20260903143017 | 78 | 0.0 | 0.0 | 0.00 | 0.00 | 0.00 | 71 | 1016.7 | |
| 20260903142017 | 78 | 270 | 2.0 | 6.0 | 0.00 | 0.00 | 0.00 | 70 | 1016.7 |
| 20260903141017 | 78 | 293 | 4.0 | 10.0 | 0.00 | 0.00 | 0.00 | 70 | 1016.8 |
| 20260903140017 | 78 | 270 | 2.0 | 5.0 | 0.00 | 0.00 | 0.00 | 69 | 1016.8 |
| 20260903135017 | 78 | 0.0 | 2.0 | 0.00 | 0.00 | 0.00 | 70 | 1016.7 | |
| 20260903134017 | 78 | 0.0 | 0.0 | 0.00 | 0.00 | 0.00 | 70 | 1016.7 | |
| 20260903133017 | 78 | 0.0 | 0.0 | 0.00 | 0.00 | 0.00 | 69 | 1016.6 | |
| 20260903132017 | 78 | 0.0 | 0.0 | 0.00 | 0.00 | 0.00 | 69 | 1016.5 | |
| 20260903131017 | 78 | 0.0 | 0.0 | 0.00 | 0.00 | 0.00 | 69 | 1016.4 | |
| 20260903130017 | 78 | 68 | 1.0 | 2.0 | 0.00 | 0.00 | 0.00 | 68 | 1016.3 |
| 20260903125017 | 78 | 0.0 | 2.0 | 0.00 | 0.00 | 0.00 | 68 | 1016.3 | |
| 20260903124017 | 78 | 135 | 1.0 | 3.0 | 0.00 | 0.00 | 0.00 | 68 | 1015.9 |
| 20260903123017 | 78 | 68 | 3.0 | 4.0 | 0.00 | 0.00 | 0.00 | 68 | 1015.8 |
| 20260903122017 | 78 | 68 | 3.0 | 6.0 | 0.00 | 0.00 | 0.00 | 69 | 1015.8 |
| 20260903121017 | 78 | 90 | 3.0 | 7.0 | 0.00 | 0.00 | 0.00 | 68 | 1015.8 |
| 20260903120017 | 78 | 113 | 3.0 | 7.0 | 0.00 | 0.00 | 0.00 | 68 | 1015.7 |
| 20260903115017 | 78 | 90 | 2.0 | 5.0 | 0.00 | 0.00 | 0.00 | 68 | 1015.6 |
| 20260903114017 | 78 | 68 | 3.0 | 7.0 | 0.00 | 0.00 | 0.00 | 68 | 1015.6 |
| 20260903113017 | 78 | 68 | 4.0 | 7.0 | 0.00 | 0.00 | 0.00 | 68 | 1015.5 |
| 20260903112017 | 78 | 68 | 3.0 | 7.0 | 0.00 | 0.00 | 0.00 | 69 | 1015.6 |
| 20260903111017 | 78 | 90 | 4.0 | 8.0 | 0.00 | 0.00 | 0.00 | 69 | 1015.7 |
| 20260903110017 | 78 | 90 | 4.0 | 9.0 | 0.00 | 0.00 | 0.00 | 70 | 1015.6 |
| 20260903105017 | 78 | 90 | 4.0 | 9.0 | 0.00 | 0.00 | 0.00 | 70 | 1015.6 |
| 20260903104017 | 78 | 90 | 3.0 | 8.0 | 0.00 | 0.00 | 0.00 | 70 | 1015.7 |
| 20260903103017 | 78 | 90 | 4.0 | 8.0 | 0.00 | 0.00 | 0.00 | 70 | 1015.8 |
| 20260903102017 | 78 | 90 | 4.0 | 9.0 | 0.00 | 0.00 | 0.00 | 70 | 1015.7 |
| 20260903101017 | 78 | 90 | 4.0 | 8.0 | 0.00 | 0.00 | 0.00 | 70 | 1015.8 |
| 20260903100017 | 78 | 90 | 3.0 | 7.0 | 0.00 | 0.00 | 0.00 | 69 | 1015.8 |
| 20260903095017 | 79 | 90 | 4.0 | 9.0 | 0.00 | 0.00 | 0.00 | 68 | 1015.8 |
| 20260903094017 | 79 | 90 | 4.0 | 7.0 | 0.00 | 0.00 | 0.00 | 68 | 1015.7 |
| 20260903093017 | 79 | 90 | 1.0 | 3.0 | 0.00 | 0.00 | 0.00 | 68 | 1015.8 |
| 20260903092017 | 79 | 68 | 2.0 | 4.0 | 0.00 | 0.00 | 0.00 | 67 | 1015.8 |
| 20260903091017 | 79 | 45 | 1.0 | 3.0 | 0.00 | 0.00 | 0.00 | 67 | 1015.8 |
| 20260903090017 | 79 | 45 | 1.0 | 2.0 | 0.00 | 0.00 | 0.00 | 66 | 1015.9 |
| 20260903085017 | 80 | 90 | 1.0 | 3.0 | 0.00 | 0.00 | 0.00 | 65 | 1015.9 |
| 20260903084017 | 80 | 90 | 1.0 | 3.0 | 0.00 | 0.00 | 0.00 | 65 | 1016.0 |
| 20260903083017 | 80 | 0.0 | 3.0 | 0.00 | 0.00 | 0.00 | 64 | 1016.0 | |
| 20260903082017 | 80 | 135 | 1.0 | 3.0 | 0.00 | 0.00 | 0.00 | 63 | 1016.0 |
| 20260903081017 | 80 | 113 | 2.0 | 4.0 | 0.00 | 0.00 | 0.00 | 63 | 1016.0 |
| 20260903080017 | 81 | 113 | 2.0 | 4.0 | 0.00 | 0.00 | 0.00 | 62 | 1016.0 |
| 20260903075017 | 81 | 0.0 | 3.0 | 0.00 | 0.00 | 0.00 | 61 | 1016.0 | |
| 20260903074017 | 81 | 90 | 2.0 | 6.0 | 0.00 | 0.00 | 0.00 | 61 | 1016.0 |
| 20260903073017 | 81 | 90 | 3.0 | 7.0 | 0.00 | 0.00 | 0.00 | 60 | 1016.1 |
| 20260903072017 | 81 | 90 | 3.0 | 7.0 | 0.00 | 0.00 | 0.00 | 59 | 1016.0 |
| 20260903071017 | 81 | 0.0 | 0.0 | 0.00 | 0.00 | 0.00 | 58 | 1015.9 | |
| 20260903070017 | 81 | 0.0 | 1.0 | 0.00 | 0.00 | 0.00 | 58 | 1015.8 | |
| 20260903065017 | 81 | 0.0 | 0.0 | 0.00 | 0.00 | 0.00 | 57 | 1015.8 | |
| 20260903064017 | 81 | 0.0 | 0.0 | 0.00 | 0.00 | 0.00 | 58 | 1015.7 | |
| 20260903063017 | 82 | 0.0 | 1.0 | 0.00 | 0.00 | 0.00 | 57 | 1015.8 | |
| 20260903062017 | 82 | 0.0 | 0.0 | 0.00 | 0.00 | 0.00 | 56 | 1015.8 | |
| 20260903061017 | 82 | 0.0 | 1.0 | 0.00 | 0.00 | 0.00 | 55 | 1015.8 | |
| 20260903060017 | 82 | 0.0 | 1.0 | 0.00 | 0.00 | 0.00 | 54 | 1015.9 | |
| 20260903055017 | 82 | 0.0 | 0.0 | 0.00 | 0.00 | 0.00 | 55 | 1015.9 | |
| 20260903054017 | 82 | 0.0 | 1.0 | 0.00 | 0.00 | 0.00 | 54 | 1016.0 | |
| 20260903053017 | 82 | 68 | 2.0 | 4.0 | 0.00 | 0.00 | 0.00 | 54 | 1016.1 |
| 20260903052017 | 82 | 68 | 1.0 | 3.0 | 0.00 | 0.00 | 0.00 | 54 | 1016.1 |
| 20260903051017 | 83 | 68 | 1.0 | 4.0 | 0.00 | 0.00 | 0.00 | 54 | 1016.2 |
| 20260903050017 | 83 | 68 | 2.0 | 3.0 | 0.00 | 0.00 | 0.00 | 54 | 1016.2 |
| 20260903045017 | 83 | 0.0 | 2.0 | 0.00 | 0.00 | 0.00 | 53 | 1016.2 | |
| 20260903044017 | 83 | 135 | 1.0 | 4.0 | 0.00 | 0.00 | 0.00 | 53 | 1016.0 |
| 20260903043017 | 83 | 113 | 2.0 | 4.0 | 0.00 | 0.00 | 0.00 | 52 | 1015.8 |
| 20260903042017 | 83 | 0 | 3.0 | 6.0 | 0.00 | 0.00 | 0.00 | 52 | 1015.8 |
| 20260903041017 | 83 | 0 | 3.0 | 6.0 | 0.00 | 0.00 | 0.00 | 52 | 1015.8 |
| 20260903040017 | 83 | 0 | 4.0 | 8.0 | 0.00 | 0.00 | 0.00 | 52 | 1015.8 |
| 20260903035017 | 83 | 90 | 4.0 | 9.0 | 0.00 | 0.00 | 0.00 | 54 | 1015.7 |
| 20260903034017 | 83 | 68 | 3.0 | 7.0 | 0.00 | 0.00 | 0.00 | 54 | 1015.6 |
| 20260903033017 | 83 | 68 | 3.0 | 4.0 | 0.00 | 0.00 | 0.00 | 55 | 1015.4 |
| 20260903032017 | 83 | 68 | 2.0 | 5.0 | 0.00 | 0.00 | 0.00 | 55 | 1015.3 |
| 20260903031017 | 83 | 68 | 2.0 | 3.0 | 0.00 | 0.00 | 0.00 | 56 | 1015.2 |
| 20260903030017 | 84 | 23 | 1.0 | 3.0 | 0.00 | 0.00 | 0.00 | 56 | 1015.0 |
| 20260903025017 | 84 | 0.0 | 1.0 | 0.00 | 0.00 | 0.00 | 54 | 1014.9 | |
| 20260903024017 | 84 | 0.0 | 0.0 | 0.00 | 0.00 | 0.00 | 52 | 1014.8 | |
| 20260903023017 | 85 | 0.0 | 0.0 | 0.00 | 0.00 | 0.00 | 52 | 1014.7 | |
| 20260903022017 | 85 | 0.0 | 2.0 | 0.00 | 0.00 | 0.00 | 50 | 1014.5 | |
| 20260903021017 | 85 | 0.0 | 1.0 | 0.00 | 0.00 | 0.00 | 49 | 1014.8 | |
| 20260903020017 | 86 | 0.0 | 1.0 | 0.00 | 0.00 | 0.00 | 49 | 1014.8 | |
| 20260903015017 | 86 | 0.0 | 1.0 | 0.00 | 0.00 | 0.00 | 49 | 1014.8 | |
| 20260903014017 | 86 | 0.0 | 2.0 | 0.00 | 0.00 | 0.00 | 48 | 1014.8 | |
| 20260903013017 | 86 | 23 | 1.0 | 3.0 | 0.00 | 0.00 | 0.00 | 48 | 1014.7 |
| 20260903012017 | 87 | 0 | 1.0 | 3.0 | 0.00 | 0.00 | 0.00 | 48 | 1014.7 |
| 20260903011017 | 87 | 0.0 | 2.0 | 0.00 | 0.00 | 0.00 | 47 | 1014.5 | |
| 20260903010017 | 87 | 23 | 2.0 | 5.0 | 0.00 | 0.00 | 0.00 | 46 | 1014.4 |
| 20260903005017 | 87 | 315 | 1.0 | 3.0 | 0.00 | 0.00 | 0.00 | 47 | 1014.5 |
| 20260903004017 | 88 | 180 | 1.0 | 3.0 | 0.00 | 0.00 | 0.00 | 45 | 1014.5 |
| 20260903003017 | 88 | 203 | 2.0 | 5.0 | 0.00 | 0.00 | 0.00 | 45 | 1014.6 |
| 20260903002017 | 89 | 203 | 4.0 | 9.0 | 0.00 | 0.00 | 0.00 | 43 | 1014.5 |
| 20260903001017 | 90 | 203 | 3.0 | 7.0 | 0.00 | 0.00 | 0.00 | 43 | 1014.5 |
| 20260903000017 | 90 | 270 | 1.0 | 3.0 | 0.00 | 0.00 | 0.00 | 41 | 1014.5 |
| 20260902235017 | 90 | 203 | 1.0 | 3.0 | 0.00 | 0.00 | 0.00 | 40 | 1014.6 |
| 20260902234017 | 90 | 270 | 2.0 | 4.0 | 0.00 | 0.00 | 0.00 | 40 | 1014.5 |
| 20260902233017 | 91 | 293 | 3.0 | 7.0 | 0.00 | 0.00 | 0.00 | 39 | 1014.5 |
| 20260902232017 | 92 | 270 | 3.0 | 6.0 | 0.00 | 0.00 | 0.00 | 39 | 1014.6 |
| 20260902231017 | 91 | 248 | 3.0 | 7.0 | 0.00 | 0.00 | 0.00 | 40 | 1014.8 |
| 20260902230017 | 90 | 248 | 3.0 | 7.0 | 0.00 | 0.00 | 0.00 | 42 | 1014.8 |
| 20260902225017 | 90 | 270 | 4.0 | 8.0 | 0.00 | 0.00 | 0.00 | 43 | 1014.9 |
| 20260902224017 | 91 | 270 | 5.0 | 11.0 | 0.00 | 0.00 | 0.00 | 44 | 1015.0 |
| 20260902223017 | 91 | 270 | 3.0 | 6.0 | 0.00 | 0.00 | 0.00 | 43 | 1015.0 |
| 20260902222017 | 91 | 248 | 6.0 | 11.0 | 0.00 | 0.00 | 0.00 | 44 | 1015.1 |
| 20260902221017 | 90 | 293 | 6.0 | 13.0 | 0.00 | 0.00 | 0.00 | 45 | 1015.2 |
| 20260902220017 | 90 | 248 | 4.0 | 9.0 | 0.00 | 0.00 | 0.00 | 44 | 1015.3 |
| 20260902215017 | 90 | 248 | 4.0 | 11.0 | 0.00 | 0.00 | 0.00 | 41 | 1015.5 |
| 20260902214017 | 90 | 270 | 3.0 | 8.0 | 0.00 | 0.00 | 0.00 | 41 | 1015.4 |
| 20260902213017 | 90 | 248 | 4.0 | 8.0 | 0.00 | 0.00 | 0.00 | 40 | 1015.3 |
| 20260902212017 | 90 | 248 | 6.0 | 13.0 | 0.00 | 0.00 | 0.00 | 41 | 1015.5 |
| 20260902211017 | 91 | 248 | 6.0 | 13.0 | 0.00 | 0.00 | 0.00 | 40 | 1015.7 |
| 20260902210017 | 91 | 248 | 6.0 | 14.0 | 0.00 | 0.00 | 0.00 | 42 | 1015.6 |
| 20260902205017 | 92 | 270 | 6.0 | 13.0 | 0.00 | 0.00 | 0.00 | 42 | 1015.8 |
| 20260902204017 | 92 | 270 | 7.0 | 13.0 | 0.00 | 0.00 | 0.00 | 42 | 1016.0 |
| 20260902203017 | 92 | 293 | 8.0 | 13.0 | 0.00 | 0.00 | 0.00 | 43 | 1016.0 |
| 20260902202017 | 92 | 270 | 8.0 | 15.0 | 0.00 | 0.00 | 0.00 | 44 | 1016.1 |
| 20260902201017 | 92 | 248 | 8.0 | 16.0 | 0.00 | 0.00 | 0.00 | 44 | 1016.0 |
| 20260902200017 | 91 | 248 | 7.0 | 12.0 | 0.00 | 0.00 | 0.00 | 45 | 1016.2 |
| 20260902195017 | 93 | 270 | 8.0 | 16.0 | 0.00 | 0.00 | 0.00 | 44 | 1016.4 |
| 20260902194017 | 92 | 270 | 7.0 | 13.0 | 0.00 | 0.00 | 0.00 | 44 | 1016.7 |
| 20260902193017 | 91 | 270 | 7.0 | 14.0 | 0.00 | 0.00 | 0.00 | 46 | 1016.8 |
| 20260902192017 | 91 | 270 | 6.0 | 12.0 | 0.00 | 0.00 | 0.00 | 47 | 1017.0 |
| 20260902191017 | 91 | 293 | 6.0 | 13.0 | 0.00 | 0.00 | 0.00 | 46 | 1017.0 |
| 20260902190017 | 91 | 270 | 9.0 | 14.0 | 0.00 | 0.00 | 0.00 | 46 | 1017.2 |
| 20260902185017 | 91 | 270 | 7.0 | 12.0 | 0.00 | 0.00 | 0.00 | 46 | 1017.3 |
| 20260902184017 | 90 | 248 | 6.0 | 11.0 | 0.00 | 0.00 | 0.00 | 46 | 1017.5 |
| 20260902183017 | 90 | 270 | 6.0 | 11.0 | 0.00 | 0.00 | 0.00 | 46 | 1017.6 |
| 20260902182017 | 91 | 248 | 5.0 | 10.0 | 0.00 | 0.00 | 0.00 | 48 | 1017.6 |
| 20260902181017 | 90 | 270 | 5.0 | 10.0 | 0.00 | 0.00 | 0.00 | 49 | 1017.9 |
| 20260902180017 | 90 | 270 | 6.0 | 11.0 | 0.00 | 0.00 | 0.00 | 48 | 1018.0 |
| 20260902175017 | 89 | 248 | 5.0 | 10.0 | 0.00 | 0.00 | 0.00 | 48 | 1017.9 |
| 20260902174017 | 89 | 225 | 3.0 | 6.0 | 0.00 | 0.00 | 0.00 | 48 | 1018.0 |
| 20260902173017 | 89 | 248 | 3.0 | 11.0 | 0.00 | 0.00 | 0.00 | 49 | 1018.2 |
| 20260902172017 | 89 | 248 | 4.0 | 9.0 | 0.00 | 0.00 | 0.00 | 48 | 1018.2 |
| 20260902171017 | 87 | 248 | 1.0 | 4.0 | 0.00 | 0.00 | 0.00 | 50 | 1018.3 |
| 20260902170017 | 88 | 270 | 1.0 | 4.0 | 0.00 | 0.00 | 0.00 | 51 | 1018.3 |
| 20260902165017 | 87 | 225 | 2.0 | 6.0 | 0.00 | 0.00 | 0.00 | 51 | 1018.2 |
| 20260902164017 | 87 | 158 | 2.0 | 5.0 | 0.00 | 0.00 | 0.00 | 53 | 1018.3 |
| 20260902163017 | 86 | 135 | 3.0 | 6.0 | 0.00 | 0.00 | 0.00 | 53 | 1018.3 |
| 20260902162017 | 85 | 113 | 2.0 | 6.0 | 0.00 | 0.00 | 0.00 | 55 | 1018.3 |
| 20260902161017 | 85 | 158 | 2.0 | 7.0 | 0.00 | 0.00 | 0.00 | 55 | 1018.3 |
| 20260902160017 | 85 | 90 | 2.0 | 6.0 | 0.00 | 0.00 | 0.00 | 55 | 1018.3 |
| 20260902155017 | 84 | 68 | 3.0 | 5.0 | 0.00 | 0.00 | 0.00 | 56 | 1018.2 |
| 20260902154017 | 84 | 68 | 4.0 | 7.0 | 0.00 | 0.00 | 0.00 | 57 | 1018.2 |
| 20260902153017 | 84 | 113 | 3.0 | 7.0 | 0.00 | 0.00 | 0.00 | 58 | 1018.2 |